This demonstration page uses our WeatherBlox Daily Observations layout. Learn more.

Left ArrowRight Arrow

Hourly Observations for May 20, 2019

Temp ( °F °C ) Dew Point ( °F °C ) Humidity (%) Winds ( mph kmh ) Pressure ( in mb ) Visibility ( mi km ) Precip ( " mm )
12:52 am 00:52 Clear 55 12.8 49 9.4 80 80 Calm 29.99 1016 10 16 0.00 0.00
1:52 am 01:52 Clear 54 12.2 50 10 87 87 Calm 29.99 1016 10 16 0.00 0.00
2:52 am 02:52 Clear 53 11.7 49 9.4 86 86 Calm 30.00 1016 10 16 0.00 0.00
3:52 am 03:52 Clear 51 10.6 47 8.3 86 86 Calm 30.01 1016 10 16 0.00 0.00
4:52 am 04:52 Clear 50 10 46 7.8 86 86 Calm 30.02 1017 10 16 0.00 0.00
5:52 am 05:52 Clear 53 11.7 48 8.9 83 83 Calm 30.04 1017 10 16 0.00 0.00
6:52 am 06:52 Sunny 53 11.7 48 8.9 83 83 NE 7 11 30.05 1018 10 16 0.00 0.00
7:52 am 07:52 Sunny 56 13.3 50 10 81 81 ENE 9 15 30.04 1017 10 16 0.00 0.00
8:52 am 08:52 Sunny 59 15 50 10 72 72 ENE 9 15 30.04 1017 10 16 0.00 0.00
9:52 am 09:52 Sunny 64 17.8 51 10.6 63 63 E 10 17 30.04 1017 10 16 0.00 0.00
10:52 am 10:52 Sunny 67 19.4 52 11.1 59 59 E 12 19 30.01 1016 10 16 0.00 0.00
11:52 am 11:52 Sunny 71 21.7 55 12.8 57 57 ESE 8 13 30.00 1016 10 16 0.00 0.00
12:52 pm 12:52 Sunny 72 22.2 56 13.3 57 57 SE 9 15 29.98 1015 10 16 0.00 0.00
1:52 pm 13:52 Sunny 71 21.7 55 12.8 57 57 ESE 15 24 29.93 1014 10 16 0.00 0.00
2:52 pm 14:52 Mostly Sunny 71 21.7 56 13.3 59 59 E 10 17 29.93 1014 10 16 0.00 0.00
3:52 pm 15:52 Partly Cloudy 73 22.8 58 14.4 59 59 E 14 22 29.86 1011 10 16 0.00 0.00
4:52 pm 16:52 Mostly Cloudy 75 23.9 60 15.6 60 60 ESE 17 28 29.80 1009 10 16 0.00 0.00
5:52 pm 17:52 Cloudy 74 23.3 60 15.6 62 62 ESE 20 31 29.76 1008 10 16 0.00 0.00
6:30 pm 18:30 Cloudy with Nearby Thunderstorms 73 22.8 60 15.6 64 64 ESE 21 33 29.69 1005 10 16 0.00 0.03
6:42 pm 18:42 Windy with Storms Likely 71 21.7 61 16.1 71 71 E 22 35 29.67 1005 8 13 0.01 0.25
6:52 pm 18:52 Windy with Storms Likely 71 21.7 61 16.1 71 71 ESE 28 44 29.71 1006 10 16 0.02 0.51
7:00 pm 19:00 Cloudy with Nearby Thunderstorms 72 22.2 61 16.1 68 68 WSW 15 24 29.73 1007 10 16 0.00 0.03
7:10 pm 19:10 Cloudy 69 20.6 62 16.7 78 78 N 6 9 29.74 1007 10 16 0.00 0.03
7:52 pm 19:52 Cloudy 73 22.8 62 16.7 69 69 ESE 25 41 29.72 1007 10 16 0.00 0.03
8:52 pm 20:52 Cloudy 72 22.2 63 17.2 73 73 SE 23 37 29.69 1005 10 16 0.00 0.00
9:25 pm 21:25 Mostly Cloudy 73 22.8 63 17.2 71 71 SE 23 37 29.66 1004 10 16 0.00 0.00
9:43 pm 21:43 Mostly Cloudy 72 22.2 63 17.2 73 73 SE 22 35 29.67 1005 10 16 0.00 0.00
9:52 pm 21:52 Cloudy 73 22.8 64 17.8 74 74 SSE 24 39 29.70 1006 10 16 0.00 0.00
10:21 pm 22:21 Mostly Cloudy with Nearby Thunderstorms 72 22.2 64 17.8 76 76 SSE 24 39 29.72 1007 10 16 0.00 0.00
10:25 pm 22:25 Mostly Cloudy with Thunderstorms 71 21.7 63 17.2 76 76 W 32 52 29.80 1009 7 11 0.00 0.00
10:28 pm 22:28 Mostly Cloudy with Thunderstorms 64 17.8 59 15 84 84 WNW 23 37 29.81 1010 2 3 0.00 0.03
10:30 pm 22:30 Mostly Cloudy with Strong Thunderstorms 61 16.1 57 13.9 87 87 WNW 22 35 29.82 1010 1 2 0.00 0.03
10:34 pm 22:34 Mostly Cloudy with Strong Thunderstorms 59 15 56 13.3 90 90 WNW 15 24 29.84 1010 1 1 0.14 3.56
10:42 pm 22:42 Cloudy with Strong Thunderstorms 60 15.6 58 14.4 93 93 W 9 15 29.77 1008 1 1 0.73 18.54
10:49 pm 22:49 Cloudy with Strong Thunderstorms 61 16 61 16 100 100 SW 8 13 29.81 1010 1 2 1.12 28.45
10:52 pm 22:52 Cloudy with Strong Thunderstorms 61 16.1 60 15.6 97 97 S 7 11 29.79 1009 1 2 1.23 31.24
11:07 pm 23:07 Cloudy with Strong Thunderstorms 60 15.6 59 15 96 96 S 7 11 29.80 1009 2 3 0.26 6.60
11:14 pm 23:14 Cloudy with Strong Thunderstorms 61 16.1 59 15 93 93 SSE 12 19 29.82 1010 2 3 0.48 12.19
11:26 pm 23:26 Cloudy with Strong Thunderstorms 60 15.6 59 15 96 96 WSW 6 9 29.79 1009 2 3 0.70 17.78
11:33 pm 23:33 Cloudy with Thunderstorms 61 16.1 59 15 93 93 SSW 6 9 29.79 1009 3 5 0.78 19.81
11:46 pm 23:46 Cloudy with Nearby Thunderstorms 61 16 59 15 94 94 SSW 9 15 29.83 1010 6 10 0.81 20.57
11:52 pm 23:52 Cloudy with Nearby Thunderstorms 61 16.1 59 15 93 93 SSE 5 7 29.82 1010 5 8 0.84 21.34
11:58 pm 23:58 Cloudy with Thunderstorms 61 16.1 59 15 93 93 S 9 15 29.86 1011 5 8 0.02 0.51

Powered by AerisWeather